Regional Weather Roundup
Issued by NWS Green Bay, WI

Home | Current Version | Previous Version | Text Only | Print | Product List | Glossary On
Versions: 1 2 3 4 5 6 7 8 9 10 11 12 13 14 15 16 17 18 19 20 21 22 23 24 25 26 27 28 29 30 31 32 33 34 35 36 37 38 39 40 41 42 43 44 45 46 47 48 49 50
000
ASUS43 KGRB 312259
RWRGRB

NORTH-CENTRAL AND NORTHEAST WISCONSIN REGIONAL WEATHER ROUNDUP
NATIONAL WEATHER SERVICE GREEN BAY WI
600 PM CDT THU JUL 31 2014

WIZ005-009-010>012-018-019-010000-
NORTH CENTRAL WISCONSIN

CITY           SKY/WX    TMP DP  RH WIND       PRES   REMARKS
IRONWOOD       NOT AVBL
MANITOWISH WTR NOT AVBL
ARBOR VITAE    NOT AVBL
EAGLE RIVER    NOT AVBL
LAND O LAKES   NOT AVBL
RHINELANDER    SUNNY     74  50  42 NW3       30.00S
PHILLIPS       MOSUNNY   75  55  50 W3        29.98F
ANTIGO         NOT AVBL
TOMAHAWK       NOT AVBL
MERRILL        NOT AVBL
$$

WIZ013-073-010000-
NORTHEAST WISCONSIN

CITY           SKY/WX    TMP DP  RH WIND       PRES   REMARKS
IRON MOUNTAIN  SUNNY     77  47  34 NW12      29.95S
MARINETTE      MOSUNNY   79  52  38 W5        29.93S
$$

WIZ017-030-035>037-045-010000-
CENTRAL WISCONSIN

CITY           SKY/WX    TMP DP  RH WIND       PRES   REMARKS
MEDFORD        NOT AVBL
WAUSAU         PTSUNNY   75  60  59 W8        29.97S
MOSINEE        MOSUNNY   73  59  60 W12G21    30.01R
MARSHFIELD     MOSUNNY   78  60  53 W10       29.99F
WISC RAPIDS    MOSUNNY   79  58  48 W10G20    29.99F
STEVENS POINT  NOT AVBL
WAUPACA        PTSUNNY   82  55  40 NW7       29.98R
SHAWANO        PTSUNNY   79  58  48 W10       29.96R
CLINTONVILLE   PTSUNNY   72  55  56 W9        29.98R
$$

WIZ038-039-048-051-010000-
FOX VALLEY

CITY           SKY/WX    TMP DP  RH WIND       PRES   REMARKS
NWS GREEN BAY  MOSUNNY   76  63  64 SW6       29.96S
APPLETON       LGT RAIN  72  63  73 NW8       29.99R
OSHKOSH        HAZE      72  64  76 CALM      29.97F VSB 1/4
FOND DU LAC    MOSUNNY   80  58  46 W12       29.97F
$$

WIZ022-050-052-010000-
EAST CENTRAL WISCONSIN

CITY           SKY/WX    TMP DP  RH WIND       PRES   REMARKS
STURGEON BAY   SUNNY     77  52  41 S7        29.96S
MANITOWOC      NOT AVBL
SHEBOYGAN      PTSUNNY   75  62  64 S7        29.97S
$$

LMZ563-521-522-541>543-010000-
LAKESHORE

STATION/POSITION TIME  TEMP    WIND        PRES    VSBY  WAVE
                       AIR SEA DIR/SP/G                  HT/PER
                 (UTC) (F)     (DEG/KT/KT) (MB)    (MI)  (FT/S)
SHEBOYGAN LKSHOR 2200   69     180/  7/  8 1015.2R
KEWAUNEE LKSHORE 2200   58     170/  7/  8 1013.9F
NORTHPORT PIER   2200   71     160/  5/ 11 1013.5S
N MID LAKE BUOY  2200   59 55  210/ 14/ 14 1013.1F         2/ 4
S GREEN BAY BUOY 2200   74 70  140/  4     1015.0S
SISTER BAY LKSHO 2200   77     200/ 10/ 12   N/A
CHAMBERS ISLAND  2200   76     170/  5/ 10 1013.5F
MENOMINEE LKSHOR 2200   80     280/  5/  7 1014.3R
$$



USA.gov is the U.S. government's official web portal to all federal, state and local government web resources and services.